GW0890 Weather Reports


time (UTC)temp
C
wind
direction
speed
KPH
gust
KPH
rain 1hr
cm
rain 24hr
cm
rain mn
cm
humidity
%
barometer
mb
20260509004620 17 31 0.0 6.4 0.00 0.00 0.00 54 1009.7
20260509003052 18 30 0.0 6.4 0.00 0.00 0.00 49 1009.9
20260509001554 20 29 0.0 3.2 0.00 0.00 0.00 39 1009.9
20260509000050 20 28 0.0 6.4 0.00 0.00 0.00 39 1009.8
20260508234551 20 26 6.4 12.9 0.00 0.00 0.00 38 1009.7
20260508233048 20 74 8.0 16.1 0.00 0.00 0.00 37 1009.6
20260508231547 20 24 8.0 22.5 0.00 0.00 0.00 37 1009.6
20260508230048 21 40 9.7 16.1 0.00 0.00 0.00 37 1009.7
20260508224551 21 23 9.7 24.1 0.00 0.00 0.00 37 1009.9
20260508223049 21 56 11.3 24.1 0.00 0.00 0.00 36 1010.0
20260508221543 21 61 9.7 17.7 0.00 0.00 0.00 38 1009.8
20260508220040 21 337 11.3 17.7 0.00 0.00 0.00 35 1009.8
20260508214556 21 64 9.7 17.7 0.00 0.00 0.00 37 1009.9
20260508213037 21 16 11.3 33.8 0.00 0.00 0.00 37 1009.9
20260508211536 21 318 9.7 22.5 0.00 0.00 0.00 37 1010.0
20260508210037 21 16 11.3 30.6 0.00 0.00 0.00 37 1010.1
20260508204537 21 82 8.0 20.9 0.00 0.00 0.00 36 1010.2
20260508203031 21 61 12.9 22.5 0.00 0.00 0.00 36 1010.4
20260508201531 21 26 6.4 24.1 0.00 0.00 0.00 40 1010.4
20260508200027 21 300 11.3 24.1 0.00 0.00 0.00 37 1010.6
20260508194525 21 33 12.9 22.5 0.00 0.00 0.00 38 1011.0
20260508193021 21 329 8.0 19.3 0.00 0.00 0.00 38 1011.2
20260508191619 21 342 14.5 30.6 0.00 0.00 0.00 38 1011.5
20260508190036 21 350 8.0 20.9 0.00 0.00 0.00 40 1011.9
20260508184527 21 9 12.9 20.9 0.00 0.00 0.00 39 1012.4
20260508183055 20 346 11.3 25.7 0.00 0.00 0.00 39 1012.5
20260508181540 20 83 9.7 25.7 0.00 0.00 0.00 38 1012.8
20260508180047 20 117 9.7 22.5 0.00 0.00 0.00 40 1012.9
20260508174542 20 32 8.0 14.5 0.00 0.00 0.00 41 1013.1
20260508173032 20 116 12.9 22.5 0.00 0.00 0.00 38 1013.3
20260508171529 20 76 9.7 17.7 0.00 0.00 0.00 41 1013.5
20260508170107 20 306 8.0 25.7 0.00 0.00 0.00 42 1013.8
20260508164559 20 355 11.3 22.5 0.00 0.00 0.00 42 1014.1
20260508163052 19 39 9.7 17.7 0.00 0.00 0.00 42 1014.3
20260508161549 18 76 4.8 17.7 0.00 0.00 0.00 47 1014.8
20260508160046 18 11 11.3 22.5 0.00 0.00 0.00 44 1015.0
20260508154544 17 63 6.4 22.5 0.00 0.00 0.00 46 1015.1
20260508153026 17 51 9.7 17.7 0.00 0.00 0.00 46 1015.1
20260508151511 17 317 9.7 14.5 0.00 0.00 0.00 49 1015.0
20260508150055 16 61 11.3 17.7 0.00 0.00 0.00 53 1015.2
20260508144554 15 98 9.7 14.5 0.00 0.00 0.00 53 1015.2
20260508143057 15 38 11.3 19.3 0.00 0.00 0.00 55 1015.3
20260508141600 13 24 4.8 17.7 0.00 0.00 0.00 58 1015.2
20260508140045 13 58 6.4 11.3 0.00 0.00 0.00 63 1015.3
20260508134542 12 51 4.8 11.3 0.00 0.00 0.00 67 1015.4
20260508133037 11 328 1.6 6.4 0.00 0.00 0.00 72 1015.6
20260508131533 10 310 0.0 8.0 0.00 0.00 0.00 76 1015.6
20260508130039 9 292 1.6 8.0 0.00 0.00 0.00 85 1015.7
20260508124536 6 169 0.0 0.0 0.00 0.00 0.00 95 1015.9
20260508123028 5 168 0.0 0.0 0.00 0.00 0.00 96 1015.7
20260508121626 4 167 0.0 0.0 0.00 0.00 0.00 96 1015.7
20260508120029 3 167 0.0 0.0 0.00 0.00 0.00 96 1015.6
20260508114530 2 167 0.0 0.0 0.00 0.00 0.00 96 1015.6
20260508113028 2 167 0.0 0.0 0.00 0.00 0.00 95 1015.6
20260508111526 1 166 0.0 0.0 0.00 0.00 0.00 95 1015.5
20260508110023 1 166 0.0 0.0 0.00 0.00 0.00 95 1015.3
20260508104524 1 166 0.0 0.0 0.00 0.00 0.00 95 1015.2
20260508103025 1 166 0.0 0.0 0.00 0.00 0.00 95 1015.1
20260508101520 1 165 0.0 0.0 0.00 0.00 0.00 95 1014.9
20260508100117 1 165 0.0 0.0 0.00 0.00 0.00 95 1014.7
20260508094546 1 165 0.0 0.0 0.00 0.00 0.00 95 1014.7
20260508093045 1 165 0.0 0.0 0.00 0.00 0.00 94 1014.7
20260508091543 1 165 0.0 0.0 0.00 0.00 0.00 94 1014.7
20260508090040 1 165 0.0 0.0 0.00 0.00 0.00 94 1014.6
20260508084641 1 165 0.0 0.0 0.00 0.00 0.00 94 1014.6
20260508083042 1 165 0.0 0.0 0.00 0.00 0.00 94 1014.5
20260508081510 2 164 0.0 0.0 0.00 0.00 0.00 94 1014.6
20260508080005 2 164 0.0 0.0 0.00 0.00 0.00 94 1014.4
20260508074502 2 164 0.0 0.0 0.00 0.00 0.00 94 1014.5
20260508073004 2 164 0.0 0.0 0.00 0.00 0.00 94 1014.3
20260508071604 2 164 0.0 0.0 0.00 0.00 0.00 93 1014.3
20260508070059 2 164 0.0 0.0 0.00 0.00 0.00 93 1014.3
20260508064555 2 163 0.0 6.4 0.00 0.00 0.00 93 1014.4
20260508063103 2 162 0.0 0.0 0.00 0.00 0.00 92 1014.5
20260508061551 3 162 0.0 3.2 0.00 0.00 0.00 92 1014.5
20260508060050 3 162 0.0 0.0 0.00 0.00 0.00 92 1014.6
20260508054520 3 162 0.0 3.2 0.00 0.00 0.00 92 1014.4
20260508053016 3 160 0.0 3.2 0.00 0.00 0.00 91 1014.4
20260508051513 3 159 0.0 0.0 0.00 0.00 0.00 91 1014.4
20260508050010 3 159 1.6 4.8 0.00 0.00 0.00 90 1014.4
20260508044508 4 159 0.0 0.0 0.00 0.00 0.00 90 1014.5
20260508043006 4 159 0.0 0.0 0.00 0.00 0.00 89 1014.5
20260508041602 5 158 0.0 0.0 0.00 0.00 0.00 88 1014.4
20260508040059 5 158 0.0 0.0 0.00 0.00 0.00 87 1014.4
20260508034611 5 158 0.0 0.0 0.00 0.00 0.00 87 1014.3
20260508033054 6 157 0.0 0.0 0.00 0.00 0.00 84 1014.4
20260508031550 6 157 0.0 3.2 0.00 0.00 0.00 84 1014.4
20260508030047 6 157 0.0 6.4 0.00 0.00 0.00 83 1014.3
20260508024544 7 157 0.0 6.4 0.00 0.00 0.00 79 1014.2
20260508023039 7 155 0.0 0.0 0.00 0.00 0.00 76 1014.0
20260508021505 8 155 0.0 0.0 0.00 0.00 0.00 74 1013.8
20260508020004 9 155 0.0 3.2 0.00 0.00 0.00 71 1013.7
20260508014533 10 155 1.6 3.2 0.00 0.00 0.00 69 1013.3
20260508013039 10 155 0.0 3.2 0.00 0.00 0.00 65 1013.2
20260508011502 11 155 0.0 0.0 0.00 0.00 0.00 61 1012.9